Time,TemperatureF,DewpointF,PressureIn,WindDirection,WindDirectionDegrees,WindSpeedMPH,WindSpeedGustMPH,Humidity,HourlyPrecipIn,Conditions,Clouds,dailyrainin,SoftwareType,DateUTC
2013-02-19 00:02:00,-3.0,-8.0,-100.00,NW,320,22.0,30.0,77,0.00,,,0.01,,2013-02-19 06:02:00,
2013-02-19 00:11:00,-3.0,-9.0,-100.00,NW,325,24.0,29.0,77,0.00,,,0.01,,2013-02-19 06:11:00,
2013-02-19 00:21:00,-3.0,-9.0,-100.00,NW,325,25.0,33.0,77,0.00,,,0.01,,2013-02-19 06:21:00,
2013-02-19 00:32:00,-3.0,-9.0,-100.00,NNW,330,23.0,30.0,77,0.00,,,0.01,,2013-02-19 06:32:00,
2013-02-19 00:42:00,-4.0,-9.0,-100.00,NNW,330,27.0,32.0,76,0.00,,,0.01,,2013-02-19 06:42:00,
2013-02-19 00:52:00,-4.0,-9.0,-100.00,NW,325,27.0,32.0,76,0.00,,,0.01,,2013-02-19 06:52:00,
2013-02-19 01:01:00,-4.0,-9.0,-100.00,NW,325,25.0,29.0,76,0.00,,,0.01,,2013-02-19 07:01:00,
2013-02-19 01:11:00,-4.0,-9.0,-100.00,NW,325,28.0,32.0,76,0.00,,,0.01,,2013-02-19 07:11:00,
2013-02-19 01:21:00,-5.0,-9.0,-100.00,NW,320,24.0,31.0,76,0.00,,,0.01,,2013-02-19 07:21:00,
2013-02-19 01:32:00,-5.0,-9.0,-100.00,NW,325,24.0,34.0,76,0.00,,,0.01,,2013-02-19 07:32:00,
2013-02-19 01:42:00,-5.0,-11.0,-100.00,NW,325,27.0,30.0,76,0.00,,,0.01,,2013-02-19 07:42:00,
2013-02-19 01:52:00,-5.0,-11.0,-100.00,NW,325,29.0,34.0,76,0.00,,,0.01,,2013-02-19 07:52:00,
2013-02-19 02:02:00,-5.0,-11.0,-100.00,NW,320,25.0,30.0,76,0.00,,,0.01,,2013-02-19 08:02:00,
2013-02-19 02:11:00,-5.0,-11.0,-100.00,NNW,330,26.0,33.0,75,0.00,,,0.01,,2013-02-19 08:11:00,
2013-02-19 02:21:00,-6.0,-11.0,-100.00,NW,315,24.0,31.0,76,0.00,,,0.01,,2013-02-19 08:21:00,
2013-02-19 02:31:00,-6.0,-11.0,-100.00,NW,320,29.0,33.0,75,0.00,,,0.01,,2013-02-19 08:31:00,
2013-02-19 02:42:00,-7.0,-13.0,-100.00,NW,315,25.0,34.0,75,0.00,,,0.01,,2013-02-19 08:42:00,
2013-02-19 02:52:00,-7.0,-13.0,-100.00,NW,320,27.0,33.0,75,0.00,,,0.01,,2013-02-19 08:52:00,
2013-02-19 03:01:00,-7.0,-13.0,-100.00,NW,320,26.0,32.0,75,0.00,,,0.01,,2013-02-19 09:01:00,
2013-02-19 03:11:00,-8.0,-13.0,-100.00,NW,325,27.0,32.0,75,0.00,,,0.01,,2013-02-19 09:11:00,
2013-02-19 03:21:00,-8.0,-15.0,-100.00,NW,320,24.0,31.0,74,0.00,,,0.01,,2013-02-19 09:21:00,
2013-02-19 03:32:00,-9.0,-15.0,-100.00,NW,320,27.0,33.0,74,0.00,,,0.01,,2013-02-19 09:32:00,
2013-02-19 03:42:00,-10.0,-17.0,-100.00,NW,325,22.0,34.0,73,0.00,,,0.01,,2013-02-19 09:42:00,
2013-02-19 03:52:00,-10.0,-17.0,-100.00,NW,325,26.0,31.0,73,0.00,,,0.01,,2013-02-19 09:52:00,
2013-02-19 04:01:00,-10.0,-17.0,-100.00,NW,320,24.0,29.0,73,0.00,,,0.01,,2013-02-19 10:01:00,
2013-02-19 04:11:00,-11.0,-17.0,-100.00,NW,325,21.0,28.0,73,0.00,,,0.01,,2013-02-19 10:11:00,
2013-02-19 04:21:00,-11.0,-17.0,-100.00,NW,320,23.0,29.0,72,0.00,,,0.01,,2013-02-19 10:21:00,
2013-02-19 04:31:00,-11.0,-17.0,-100.00,NW,325,22.0,27.0,72,0.00,,,0.01,,2013-02-19 10:31:00,
2013-02-19 04:41:00,-11.0,-17.0,-100.00,NW,325,22.0,27.0,72,0.00,,,0.01,,2013-02-19 10:41:00,
2013-02-19 04:51:00,-11.0,-17.0,-100.00,NW,325,21.0,26.0,72,0.00,,,0.01,,2013-02-19 10:51:00,
2013-02-19 05:01:00,-11.0,-17.0,-100.00,NW,320,22.0,27.0,72,0.00,,,0.01,,2013-02-19 11:01:00,
2013-02-19 05:11:00,-11.0,-17.0,-100.00,NW,325,24.0,30.0,72,0.00,,,0.01,,2013-02-19 11:11:00,
2013-02-19 05:21:00,-11.0,-17.0,-100.00,NNW,330,24.0,31.0,72,0.00,,,0.01,,2013-02-19 11:21:00,
2013-02-19 05:32:00,-11.0,-17.0,-100.00,NNW,330,26.0,30.0,72,0.00,,,0.01,,2013-02-19 11:32:00,
2013-02-19 05:42:00,-11.0,-17.0,-100.00,NNW,335,23.0,29.0,72,0.00,,,0.01,,2013-02-19 11:42:00,
2013-02-19 05:52:00,-10.0,-17.0,-100.00,NNW,330,24.0,31.0,73,0.00,,,0.01,,2013-02-19 11:52:00,
2013-02-19 06:01:00,-11.0,-17.0,-100.00,NNW,330,24.0,30.0,73,0.00,,,0.01,,2013-02-19 12:01:00,
2013-02-19 06:12:00,-11.0,-17.0,-100.00,NW,325,23.0,30.0,72,0.00,,,0.01,,2013-02-19 12:12:00,
2013-02-19 06:22:00,-11.0,-17.0,-100.00,NW,325,22.0,29.0,72,0.00,,,0.01,,2013-02-19 12:22:00,
2013-02-19 06:32:00,-11.0,-18.0,-100.00,NNW,330,25.0,29.0,72,0.00,,,0.01,,2013-02-19 12:32:00,
2013-02-19 06:42:00,-12.0,-18.0,-100.00,NNW,330,24.0,32.0,72,0.00,,,0.01,,2013-02-19 12:42:00,
2013-02-19 06:52:00,-12.0,-18.0,-100.00,NNW,330,22.0,30.0,72,0.00,,,0.01,,2013-02-19 12:52:00,
2013-02-19 07:02:00,-12.0,-18.0,-100.00,NNW,330,22.0,29.0,71,0.00,,,0.01,,2013-02-19 13:02:00,
2013-02-19 07:11:00,-12.0,-18.0,-100.00,NW,325,21.0,27.0,71,0.00,,,0.01,,2013-02-19 13:11:00,
2013-02-19 07:22:00,-13.0,-18.0,-100.00,NW,325,22.0,27.0,71,0.00,,,0.01,,2013-02-19 13:22:00,
2013-02-19 07:32:00,-13.0,-20.0,-100.00,NW,325,22.0,26.0,71,0.00,,,0.01,,2013-02-19 13:32:00,
2013-02-19 07:41:00,-13.0,-20.0,-100.00,NNW,330,22.0,27.0,71,0.00,,,0.01,,2013-02-19 13:41:00,
2013-02-19 07:52:00,-14.0,-20.0,-100.00,NW,325,20.0,23.0,71,0.00,,,0.01,,2013-02-19 13:52:00,
2013-02-19 08:01:00,-14.0,-20.0,-100.00,NW,325,21.0,25.0,70,0.00,,,0.01,,2013-02-19 14:01:00,
2013-02-19 08:11:00,-14.0,-20.0,-100.00,NW,325,22.0,26.0,70,0.00,,,0.01,,2013-02-19 14:11:00,
2013-02-19 08:21:00,-14.0,-20.0,-100.00,NW,325,19.0,26.0,70,0.00,,,0.01,,2013-02-19 14:21:00,
2013-02-19 08:32:00,-14.0,-20.0,-100.00,NNW,330,20.0,26.0,69,0.00,,,0.01,,2013-02-19 14:32:00,
2013-02-19 08:42:00,-14.0,-20.0,-100.00,NNW,330,20.0,25.0,69,0.00,,,0.01,,2013-02-19 14:42:00,
2013-02-19 08:52:00,-14.0,-20.0,-100.00,NNW,330,21.0,24.0,69,0.00,,,0.01,,2013-02-19 14:52:00,
2013-02-19 09:01:00,-14.0,-20.0,-100.00,NNW,330,19.0,29.0,68,0.00,,,0.00,,2013-02-19 15:01:00,
2013-02-19 09:11:00,-14.0,-20.0,-100.00,NW,325,22.0,29.0,68,0.00,,,0.00,,2013-02-19 15:11:00,
2013-02-19 09:21:00,-13.0,-20.0,-100.00,NW,325,20.0,25.0,68,0.00,,,0.00,,2013-02-19 15:21:00,
2013-02-19 09:31:00,-13.0,-20.0,-100.00,NNW,330,20.0,24.0,68,0.00,,,0.00,,2013-02-19 15:31:00,
2013-02-19 09:42:00,-13.0,-20.0,-100.00,NW,325,18.0,26.0,68,0.00,,,0.00,,2013-02-19 15:42:00,
2013-02-19 09:52:00,-13.0,-20.0,-100.00,NW,325,21.0,24.0,67,0.00,,,0.00,,2013-02-19 15:52:00,
2013-02-19 10:02:00,-13.0,-20.0,-100.00,NW,325,21.0,26.0,67,0.00,,,0.00,,2013-02-19 16:02:00,
2013-02-19 10:11:00,-13.0,-20.0,-100.00,NNW,330,18.0,25.0,67,0.00,,,0.00,,2013-02-19 16:11:00,
2013-02-19 10:21:00,-13.0,-20.0,-100.00,NW,325,20.0,24.0,67,0.00,,,0.00,,2013-02-19 16:21:00,
2013-02-19 10:32:00,-13.0,-20.0,-100.00,NW,325,21.0,24.0,67,0.00,,,0.00,,2013-02-19 16:32:00,
2013-02-19 10:41:00,-12.0,-20.0,-100.00,NW,325,20.0,24.0,66,0.00,,,0.00,,2013-02-19 16:41:00,
2013-02-19 10:51:00,-12.0,-20.0,-100.00,NNW,330,21.0,26.0,66,0.00,,,0.00,,2013-02-19 16:51:00,
2013-02-19 11:01:00,-12.0,-20.0,-100.00,NW,325,20.0,26.0,66,0.00,,,0.00,,2013-02-19 17:01:00,
2013-02-19 11:11:00,-12.0,-20.0,-100.00,NNW,330,19.0,24.0,66,0.00,,,0.00,,2013-02-19 17:11:00,
2013-02-19 11:21:00,-12.0,-20.0,-100.00,NW,325,24.0,26.0,66,0.00,,,0.00,,2013-02-19 17:21:00,
2013-02-19 11:32:00,-12.0,-20.0,-100.00,NW,320,22.0,26.0,66,0.00,,,0.00,,2013-02-19 17:32:00,
2013-02-19 11:41:00,-11.0,-20.0,-100.00,NW,325,21.0,24.0,66,0.00,,,0.00,,2013-02-19 17:41:00,
2013-02-19 11:52:00,-11.0,-20.0,-100.00,NNW,330,20.0,26.0,65,0.00,,,0.00,,2013-02-19 17:52:00,
2013-02-19 12:01:00,-11.0,-18.0,-100.00,NW,325,18.0,24.0,65,0.00,,,0.00,,2013-02-19 18:01:00,
2013-02-19 12:11:00,-11.0,-20.0,-100.00,NW,325,20.0,24.0,65,0.00,,,0.00,,2013-02-19 18:11:00,
2013-02-19 12:21:00,-11.0,-20.0,-100.00,NW,325,19.0,24.0,65,0.00,,,0.00,,2013-02-19 18:21:00,
2013-02-19 12:31:00,-11.0,-20.0,-100.00,NNW,330,21.0,24.0,65,0.00,,,0.00,,2013-02-19 18:31:00,
2013-02-19 12:41:00,-11.0,-20.0,-100.00,NNW,330,19.0,23.0,65,0.00,,,0.00,,2013-02-19 18:41:00,
2013-02-19 12:51:00,-11.0,-18.0,-100.00,NNW,330,20.0,24.0,66,0.00,,,0.00,,2013-02-19 18:51:00,
2013-02-19 13:01:00,-11.0,-18.0,-100.00,NNW,330,21.0,24.0,65,0.00,,,0.00,,2013-02-19 19:01:00,
2013-02-19 13:11:00,-10.0,-18.0,-100.00,NNW,330,21.0,24.0,65,0.00,,,0.00,,2013-02-19 19:11:00,
2013-02-19 13:21:00,-10.0,-18.0,-100.00,NNW,330,18.0,21.0,65,0.00,,,0.00,,2013-02-19 19:21:00,
2013-02-19 13:31:00,-10.0,-18.0,-100.00,NNW,330,17.0,22.0,65,0.00,,,0.00,,2013-02-19 19:31:00,
2013-02-19 13:41:00,-10.0,-18.0,-100.00,NNW,340,19.0,22.0,65,0.00,,,0.00,,2013-02-19 19:41:00,
2013-02-19 13:51:00,-10.0,-18.0,-100.00,NNW,330,17.0,22.0,65,0.00,,,0.00,,2013-02-19 19:51:00,
2013-02-19 14:01:00,-9.0,-18.0,-100.00,NW,325,18.0,21.0,65,0.00,,,0.00,,2013-02-19 20:01:00,
2013-02-19 14:12:00,-9.0,-18.0,-100.00,NW,325,18.0,21.0,65,0.00,,,0.00,,2013-02-19 20:12:00,
2013-02-19 14:21:00,-9.0,-18.0,-100.00,NW,325,18.0,21.0,65,0.00,,,0.00,,2013-02-19 20:21:00,
2013-02-19 14:32:00,-9.0,-18.0,-100.00,NNW,330,17.0,21.0,65,0.00,,,0.00,,2013-02-19 20:32:00,
2013-02-19 14:41:00,-9.0,-17.0,-100.00,NW,325,16.0,20.0,65,0.00,,,0.00,,2013-02-19 20:41:00,
2013-02-19 14:52:00,-9.0,-17.0,-100.00,NW,325,15.0,19.0,66,0.00,,,0.00,,2013-02-19 20:52:00,
2013-02-19 15:02:00,-9.0,-17.0,-100.00,NW,320,14.0,18.0,66,0.00,,,0.00,,2013-02-19 21:02:00,
2013-02-19 15:11:00,-9.0,-17.0,-100.00,NNW,330,14.0,17.0,66,0.00,,,0.00,,2013-02-19 21:11:00,
2013-02-19 15:21:00,-9.0,-17.0,-100.00,NNW,330,15.0,19.0,66,0.00,,,0.00,,2013-02-19 21:21:00,
2013-02-19 15:32:00,-9.0,-17.0,-100.00,NNW,330,15.0,19.0,66,0.00,,,0.00,,2013-02-19 21:32:00,
2013-02-19 15:42:00,-9.0,-17.0,-100.00,NNW,330,15.0,19.0,66,0.00,,,0.00,,2013-02-19 21:42:00,
2013-02-19 15:51:00,-9.0,-17.0,-100.00,NNW,330,15.0,19.0,66,0.00,,,0.00,,2013-02-19 21:51:00,
2013-02-19 16:02:00,-9.0,-17.0,-100.00,NNW,330,15.0,19.0,66,0.00,,,0.00,,2013-02-19 22:02:00,
2013-02-19 18:42:00,-13.0,-20.0,-100.00,NW,325,10.0,12.0,70,0.00,,,0.00,,2013-02-20 00:42:00,
2013-02-19 18:52:00,-13.0,-20.0,-100.00,NNW,330,9.0,11.0,70,0.00,,,0.00,,2013-02-20 00:52:00,
2013-02-19 19:51:00,-14.0,-20.0,-100.00,North,350,9.0,12.0,71,0.00,,,0.00,,2013-02-20 01:51:00,
2013-02-19 20:32:00,-16.0,-22.0,-100.00,NNW,345,9.0,9.0,70,0.00,,,0.00,,2013-02-20 02:32:00,
2013-02-19 21:12:00,-17.0,-24.0,-100.00,North,350,7.0,9.0,69,0.00,,,0.00,,2013-02-20 03:12:00,
2013-02-19 21:41:00,-17.0,-24.0,-100.00,NNW,335,5.0,6.0,69,0.00,,,0.00,,2013-02-20 03:41:00,
2013-02-19 21:52:00,-17.0,-24.0,-100.00,NW,315,4.0,5.0,69,0.00,,,0.00,,2013-02-20 03:52:00,
2013-02-19 22:01:00,-17.0,-24.0,-100.00,NW,320,5.0,6.0,69,0.00,,,0.00,,2013-02-20 04:01:00,
2013-02-19 22:11:00,-17.0,-24.0,-100.00,NW,325,4.0,5.0,69,0.00,,,0.00,,2013-02-20 04:11:00,
2013-02-19 22:21:00,-17.0,-24.0,-100.00,NW,320,5.0,6.0,69,0.00,,,0.00,,2013-02-20 04:21:00,
2013-02-19 22:31:00,-18.0,-26.0,-100.00,NW,325,5.0,6.0,69,0.00,,,0.00,,2013-02-20 04:31:00,
2013-02-19 22:41:00,-18.0,-26.0,-100.00,WNW,295,2.0,5.0,69,0.00,,,0.00,,2013-02-20 04:41:00,
2013-02-19 22:52:00,-17.0,-24.0,-100.00,NW,310,2.0,3.0,69,0.00,,,0.00,,2013-02-20 04:52:00,
2013-02-19 23:02:00,-18.0,-26.0,-100.00,NW,315,3.0,4.0,68,0.00,,,0.00,,2013-02-20 05:02:00,
2013-02-19 23:12:00,-18.0,-24.0,-100.00,NNW,335,4.0,4.0,69,0.00,,,0.00,,2013-02-20 05:12:00,
2013-02-19 23:22:00,-17.0,-24.0,-100.00,NNW,340,3.0,4.0,69,0.00,,,0.00,,2013-02-20 05:22:00,
2013-02-19 23:32:00,-19.0,-27.0,-100.00,NW,320,4.0,4.0,67,0.00,,,0.00,,2013-02-20 05:32:00,
2013-02-19 23:43:00,-18.0,-26.0,-100.00,NW,325,3.0,4.0,68,0.00,,,0.00,,2013-02-20 05:43:00,
2013-02-19 23:52:00,-18.0,-26.0,-100.00,NW,320,2.0,4.0,68,0.00,,,0.00,,2013-02-20 05:52:00,